Showing default

YAOGAN-40 01C, 57833

Orbit data source: Space-Track

YAOGAN-40 01C, 57833 is a payload satellite owned by CAST (CN) in LEO that was launched on Sun, 10 Sep 2023 UTC via a CHANG ZHENG 6A launch vehicle from the Taiyaun Space Center, China (TSC). Payload-class satellites include a variety of spacecraft equipped with specific instruments for various scientific and technological missions. These include communications satellites like Starlink; space stations such as the ISS; scientific satellites like the Hubble; Earth observation satellites from companies like Planet Labs, Umbra, and HawkEye 360; GPS; miniature CubeSats for education and research; and military/defense satellites.

Loading next visibility...
Identifier
57833, 2023-139D
Orbit
LEO
Country
Flag of CNCN / PRC
Related business
Manufacturer
DFH
Mission
Operational Defense Sigint
Bus & Motor
YG40, Unknown motor
Mass
~500 kg wet, ~500 kg dry
Launch date (UTC)
2023-09-10 (3 years ago)
Launch vehicle
CHANG ZHENG 6A
Launch site
Taiyaun Space Center, China (TSC)
Object type
Payload
Rocket body
Debris
Shape & HBR
Box + 2 Pan, 2.0 m
Radar Cross Section
5.141 m², Large (>1 m²)

Expand to show TLE details & history
Last TLE update: 21 hours ago

TLE from 21 hours ago
0 YAOGAN-40 01C
1 57833U 23139D   26172.54548853  .00000093  00000-0  40254-4 0  9995
2 57833  85.9913 257.2618 0002939  90.3043 269.8477 14.12447727143422
Epoch: 2026-06-21T13:05Z
TLE epoch observation values (Epoch: 2026-06-21T13:05:30.208Z)
Latitude
-0.00004°
Longitude
151.14171°
Altitude
854.028 km
Speed
7.426 km/s
True Right ascension
17h 09m 02s
True Declination
0° 00' 00"
Sunlit
Object was in full shadow at epoch
Visualization orbit readout
Latitude
Unknown
Longitude
Unknown
Altitude
Unknown
Speed
Unknown
Apparent Right ascension
Unknown
Apparent Declination
Unknown
Sunlit
N/A
Visualization observer readout
Local Sidereal Time
21:31:41
Azimuth
Unknown
Elevation
Unknown
Doppler factor
Unknown
Orbital elements
Apogee altitude
850.135 km
Perigee altitude
845.888 km
Semi-major axis
7,226.149 km
Eccentricity
0.00029
Inclination
85.9913°
RAAN
257.2618°
Arg. of periapsis
90.3043°
True anomaly
269.81402°
Mean anomaly
269.8477°
Eccentric anomaly
269.83086°
Mean motion
3.53332 °/min
Orbital period
101.89 mins
BSTAR
0.000040254
Loading maneuver chart data...
Computing Atmospheric mass density...
Loading historical data...
Loading historical data...
Loading historical data...
Loading historical data...
Loading historical data...
Loading historical data...
Loading historical data...
Other satellites on launch #139 in the year 2023 (2023-09-10 UTC)

Documentation

Showing up to 5 results
|